Weather in Tasova

Turkey     40°45′28″N   36°19′24″E
temp.,
°C
wind,
m/s
gust,
m/s
humid.,
%
clouds,
%
prec.,
mm/h
press.,
hPa
HPBL,
m
11 april, sun
sun1100:00+1n2499100 1.8 1019331
03:00+1n3599100 3.3 1019345
06:00+1nnw3498100 1.1 1018278
09:00+1n2399100 4.1 1020193
12:00+3ne1291100 0.6 1019380
15:00+3ne1192100 0.8 1019335
18:00+3sse119488 0.1 1020217
21:00+2sse019790 0.1 102122
12 april, mon
mon1200:00+2sse019394 0.0 102119
03:00+1wsw019372 0.0 102210
06:000sw119640 0.0 102237
09:00+4nw018546 0.0 1022399
12:00+8ene116674 0.1 10211085
15:00+9ene1161100 0.1 10201013
18:00+7ne2278100 0.1 1021151
21:00+5ne229386 0.1 1023115
13 april, tue
tue1300:00+4ne129651 0.1 1023114
03:00+3nne129476 0.1 1023148
06:00+3ne128799 0.0 1024436
09:00+5ese117635 0.0 1023543
12:00+10e125916 0.0 10211053
15:00+12e325342 0.0 10181235
18:00+11ene226268 0.0 1018588
21:00+7ene118396 0.0 102015
14 april, wed
wed1400:00+5sw118843 0.0 101911
03:00+6ssw118247 0.0 101911
06:00+5ssw117921 0.0 101911
09:00+10sse125840 0.0 1018408
12:00+16ssw254060 0.0 10151522
15:00+18wsw473569 0.0 10132331
18:00+17ssw224793 0.0 101339
21:00+12w115533 0.0 101411
15 april, thu
thu1500:00+11sw11614 0.0 101413
03:00+10wsw116241 0.0 101312
06:00+9sw2168100 0.0 101414
09:00+15s1254100 0.0 1014496
12:00+18wsw3840100 0.1 10142557
15:00+19w2733100 0.1 10132393
18:00+11ne447455 0.0 1015396
21:00+8ene3387100 0.1 1018471